[[{"header":{"parameterUnit":"m.s-1","parameterCategory":1,"la1":30.2991,"la2":30.254,"lo1":-89.0895,"lo2":-89.0444,"dy":0.0017,"dx":0.0017,"nx":28,"ny":28,"refTime":"2024-06-17T21:00:00:Z","depth":0,"parameterNumber":2,"parameterNumberName":"U-component_of_WINDS"},"data":[0,0,0,0,0,0,0,0,0,0,0,0,0,0,0,0,0,0,0,0,0,0,0,0,0,0,0,0,0,0,0,0,0,0,0,0,0,0,0,0,0,0,0,0,0,0,0,0,0,0,0,0,0,0,0,0,0,0,-2.4493,-2.4493,0,-2.4536,-2.4536,-2.4537,-2.4466,-2.4464,-2.4461,-2.4459,-2.4522,-2.4525,-2.4529,0,0,0,0,0,0,0,0,0,0,0,0,0,-2.4367,-2.437,-2.4493,-2.4493,-2.4494,-2.4536,-2.4536,-2.4537,-2.4467,-2.4464,-2.4461,-2.4458,-2.452,-2.4525,-2.453,0,0,0,0,0,0,0,0,0,0,0,0,0,-2.4418,-2.4371,-2.4493,-2.4463,-2.4461,-2.4535,-2.4536,-2.4537,-2.4467,-2.4464,-2.446,-2.4457,-2.4519,-2.4525,-2.453,-2.4641,0,0,-2.4549,-2.4551,0,0,0,0,0,0,0,0,-2.4415,-2.4422,-2.4467,-2.4466,-2.4463,-2.4491,-2.4515,-2.4573,-2.4468,-2.4466,-2.4459,-2.4455,-2.4516,-2.4522,-2.4538,-2.4644,-2.4646,-2.4549,-2.4553,-2.4555,-2.4557,0,0,0,0,0,0,0,-2.4412,-2.442,-2.451,-2.4468,-2.4466,-2.4454,-2.4457,-2.4525,-2.4512,-2.4466,-2.446,-2.4466,-2.4514,-2.4533,-2.4539,-2.4647,-2.4549,-2.4554,-2.4558,-2.456,-2.4847,-2.4851,0,0,0,0,0,0,-2.4409,-2.4418,-2.4509,-2.4511,-2.4429,-2.4459,-2.4462,-2.4487,-2.451,-2.451,-2.4469,-2.4462,-2.4525,-2.4533,-2.4541,-2.4672,-2.4555,-2.4561,-2.4564,-2.4843,-2.4848,-2.4853,0,0,0,0,0,0,-2.4407,-2.4418,-2.4507,-2.4463,-2.4473,-2.4465,-2.4493,-2.4489,-2.4507,-2.4512,-2.4512,-2.4489,-2.4522,-2.4533,-2.4615,-2.4673,-2.4563,-2.4569,-2.4838,-2.4845,-2.485,-2.4934,0,0,0,0,0,0,-2.4403,-2.4417,-2.4455,-2.4464,-2.4476,-2.4575,-2.4496,-2.4493,-2.4516,-2.4508,-2.4531,-2.4532,-2.452,-2.4607,-2.4621,-2.4679,-2.4573,-2.4833,-2.4841,-2.4848,-2.4926,-2.4943,-2.4956,0,0,0,0,0,-2.4399,-2.4481,-2.4457,-2.4469,-2.4522,-2.4579,-2.4586,-2.4565,-2.4521,-2.4561,-2.4564,-2.4531,-2.4665,-2.4616,-2.4632,-2.4692,-2.483,-2.4839,-2.4848,-2.492,-2.4939,-2.4956,0,0,0,0,0,0,-2.4485,-2.4482,-2.4455,-2.4541,-2.456,-2.4566,-2.4616,-2.4587,-2.4623,-2.4615,-2.4593,-2.4599,-2.4687,-2.4699,-2.4644,-2.4801,-2.4741,-2.4753,-2.479,-2.4809,-2.4823,-2.4819,-2.4578,0,0,0,0,0,-2.4513,-2.4553,-2.4551,-2.4627,-2.4637,-2.4625,-2.465,-2.4631,-2.4652,-2.4662,-2.4671,-2.4698,-2.4746,-2.4778,-2.4823,-2.4928,-2.4934,-2.4978,-2.4993,-2.5005,-2.5017,-2.5075,-2.5095,-2.4883,-2.4883,-2.4882,0,0,-2.4573,-2.4576,-2.4604,-2.4645,-2.4657,-2.4704,-2.4633,-2.4686,-2.4723,-2.4672,-2.4748,-2.4757,-2.4786,-2.488,-2.4922,-2.4892,-2.5077,-2.5017,-2.5027,-2.5032,-2.5086,-2.5106,-2.5124,-2.4889,-2.4888,-2.4887,0,0,-2.4706,-2.4711,-2.4775,-2.4788,-2.4805,-2.4797,-2.4812,-2.4823,-2.4825,-2.49,-2.4862,-2.4909,-2.4992,-2.5014,-2.5036,-2.5178,-2.5149,-2.5194,-2.5272,-2.5329,-2.5346,-2.536,-2.5412,-2.543,-2.5205,-2.5205,-2.5206,0,-2.478,-2.4843,-2.4814,-2.4868,-2.4889,-2.4839,-2.4906,-2.4922,-2.4956,-2.4974,-2.4939,-2.504,-2.5057,-2.5155,-2.5189,-2.5209,-2.523,-2.519,-2.5344,-2.5359,-2.5373,-2.5421,-2.5441,-2.5211,-2.521,-2.5209,-2.5209,0,-2.4934,-2.498,-2.503,-2.5057,-2.5083,-2.5145,-2.5129,-2.5161,-2.5141,-2.5138,-2.5217,-2.5235,-2.5281,-2.5304,-2.5288,-2.5402,-2.5382,-2.5347,-2.5285,-2.5398,-2.5444,-2.5462,-2.5218,-2.5216,-2.5215,-2.5213,0,0,-2.5122,-2.5129,-2.5149,-2.516,-2.5176,-2.5214,-2.5275,-2.5314,-2.5343,-2.5369,-2.5422,-2.5493,-2.5459,-2.5484,-2.5471,-2.552,-2.5632,-2.5478,-2.5479,-2.5506,-2.5761,-2.5787,-2.5809,-2.5614,-2.5617,-2.562,-2.5758,0,-2.5254,-2.5351,-2.5326,-2.5426,-2.5469,-2.5423,-2.5477,-2.5496,-2.5495,-2.5537,-2.5539,-2.5589,-2.554,-2.5555,-2.5602,-2.5608,-2.5683,-2.5598,-2.5667,-2.567,-2.566,-2.5832,-2.586,-2.599,-2.5776,-2.5779,-2.5781,0,-2.542,-2.5445,-2.5547,-2.5555,-2.5572,-2.562,-2.5655,-2.5693,-2.5716,-2.5712,-2.574,-2.5717,-2.5783,-2.572,-2.5814,-2.5757,-2.5784,-2.5792,-2.5797,-2.5802,-2.5732,-2.5843,-2.603,-2.605,-2.5809,-2.5806,-2.5804,0,-2.5546,-2.5607,-2.5675,-2.5687,-2.5698,-2.5733,-2.5741,-2.5759,-2.5784,-2.5817,-2.5834,-2.5878,-2.5901,-2.5938,-2.5929,-2.5884,-2.6026,-2.5962,-2.6028,-2.6029,-2.606,-2.6058,-2.6254,-2.6078,-2.6078,-2.6078,-2.6077,0,-2.5695,-2.576,-2.5732,-2.5774,-2.5846,-2.582,-2.5894,-2.5898,-2.5914,-2.596,-2.5926,-2.5972,-2.5957,-2.6004,-2.5999,-2.6077,-2.6089,-2.6092,-2.6089,-2.6094,-2.6094,-2.6112,-2.6102,-2.6083,-2.6082,-2.6081,-2.608,0,-2.5849,-2.5832,-2.5903,-2.5907,-2.591,-2.5963,-2.5969,-2.6011,-2.6007,-2.6067,-2.608,-2.6077,-2.6129,-2.6123,-2.6186,-2.6182,-2.6279,-2.6267,-2.627,-2.6267,-2.6333,-2.6327,-2.6548,-2.6576,-2.6382,-2.6384,-2.6385,0,-2.5944,-2.5992,-2.5999,-2.6024,-2.6032,-2.6075,-2.6099,-2.6077,-2.6105,-2.6133,-2.6173,-2.6221,-2.6259,-2.6347,-2.6354,-2.6402,-2.639,-2.6464,-2.6398,-2.6401,-2.6392,-2.6388,-2.6394,-2.6478,-2.648,-2.6482,-2.6483,0,-2.6116,-2.6105,-2.6138,-2.6169,-2.6197,-2.6222,-2.6244,-2.6269,-2.6249,-2.6284,-2.6333,-2.6362,-2.6421,-2.6472,-2.6516,-2.6531,-2.6506,-2.6504,-2.6522,-2.6527,-2.6526,-2.6527,-2.6305,-2.6499,-2.6497,-2.6496,-2.6495,-2.6495,-2.6244,-2.6284,-2.6294,-2.6333,-2.6346,-2.6367,-2.6406,-2.6405,-2.6444,-2.6486,-2.6473,-2.6531,-2.6555,-2.6611,-2.663,-2.6679,-2.6653,-2.6679,-2.6685,-2.6692,-2.6699,-2.6518,-2.6687,-2.6687,-2.6686,-2.6686,-2.6686,0,-2.6414,-2.6417,-2.6453,-2.6481,-2.6513,-2.648,-2.6503,-2.6533,-2.6582,-2.6603,-2.6639,-2.6698,-2.6746,-2.6756,-2.6804,-2.6841,-2.6831,-2.6854,-2.6852,-2.6856,-2.672,-2.6699,-2.6862,-2.6862,-2.6862,-2.6862,-2.6862,-2.6861,-2.6506,-2.6571,-2.6562,-2.6635,-2.664,-2.669,-2.6707,-2.6728,-2.6744,-2.6809,-2.6846,-2.685,-2.6869,-2.6917,-2.6962,-2.6964,-2.6984,-2.7012,-2.701,-2.6883,-2.6865,-2.6848,-2.6829,-2.7016,-2.7016,-2.7142,-2.7143,-2.7144]},{"header":{"parameterUnit":"m.s-1","parameterCategory":1,"la1":30.2991,"la2":30.254,"lo1":-89.0895,"lo2":-89.0444,"dy":0.0017,"dx":0.0017,"nx":28,"ny":28,"refTime":"2024-06-17T21:00:00:Z","depth":0,"parameterNumber":3,"parameterNumberName":"V-component_of_WINDS"},"data":[0,0,0,0,0,0,0,0,0,0,0,0,0,0,0,0,0,0,0,0,0,0,0,0,0,0,0,0,0,0,0,0,0,0,0,0,0,0,0,0,0,0,0,0,0,0,0,0,0,0,0,0,0,0,0,0,0,0,-0.9724,-0.9727,0,-1.0019,-1.0022,-1.0025,-1.0218,-1.0219,-1.0221,-1.0222,-1.0519,-1.0526,-1.0532,0,0,0,0,0,0,0,0,0,0,0,0,0,-0.9323,-0.9329,-0.9723,-0.9727,-0.9731,-1.0018,-1.0022,-1.0026,-1.0218,-1.022,-1.0221,-1.0222,-1.0517,-1.0525,-1.0533,0,0,0,0,0,0,0,0,0,0,0,0,0,-0.9545,-0.9331,-0.9723,-0.9861,-0.9877,-1.0017,-1.0022,-1.0027,-1.0218,-1.022,-1.0221,-1.0223,-1.0514,-1.0524,-1.0534,-1.0559,0,0,-1.0565,-1.0569,0,0,0,0,0,0,0,0,-0.9532,-0.9559,-0.9837,-0.9852,-0.9869,-1.0084,-0.999,-1.0205,-1.0217,-1.0088,-1.0222,-1.0224,-1.0372,-1.0394,-1.0445,-1.0573,-1.0585,-1.0566,-1.0572,-1.0576,-1.0579,0,0,0,0,0,0,0,-0.9516,-0.9548,-0.984,-0.9841,-0.9861,-0.9908,-0.9941,-1.0032,-1.0216,-1.0099,-1.0114,-1.0147,-1.0381,-1.0435,-1.0454,-1.059,-1.0566,-1.0574,-1.0581,-1.0585,-1.0753,-1.0751,0,0,0,0,0,0,-0.948,-0.9534,-0.9831,-0.9849,-0.9702,-0.9913,-0.9951,-1.0013,-1.0215,-1.0248,-1.0145,-1.0155,-1.0417,-1.0442,-1.0465,-1.0508,-1.0576,-1.0586,-1.0591,-1.0754,-1.0752,-1.0751,0,0,0,0,0,0,-0.947,-0.9504,-0.9819,-0.9696,-0.9739,-0.9918,-0.9986,-1.0018,-1.0072,-1.025,-1.0283,-1.0166,-1.0419,-1.0451,-1.0535,-1.052,-1.059,-1.0599,-1.0756,-1.0754,-1.0752,-1.0592,0,0,0,0,0,0,-0.9458,-0.95,-0.9512,-0.9695,-0.9745,-0.9884,-0.9985,-1.0022,-1.0089,-1.0105,-1.0279,-1.0309,-1.0423,-1.0518,-1.0544,-1.0536,-1.0607,-1.0758,-1.0755,-1.0752,-1.0599,-1.0584,-1.0571,0,0,0,0,0,-0.9443,-0.9454,-0.9511,-0.9546,-0.9764,-0.9883,-0.9912,-1.0044,-1.0087,-1.01,-1.0215,-1.0304,-1.0518,-1.0525,-1.0556,-1.055,-1.076,-1.0756,-1.0753,-1.0605,-1.0587,-1.0572,0,0,0,0,0,0,-0.9264,-0.948,-0.9547,-0.9617,-0.973,-0.9915,-0.9936,-1.0021,-1.0123,-1.0133,-1.0292,-1.033,-1.0397,-1.0483,-1.0487,-1.0585,-1.0649,-1.0652,-1.0526,-1.0511,-1.0497,-1.0474,-1.0616,0,0,0,0,0,-0.9232,-0.9312,-0.9497,-0.9541,-0.9595,-0.9755,-0.9812,-0.9904,-1.0027,-1.0076,-1.0197,-1.0311,-1.0405,-1.0463,-1.0559,-1.0613,-1.0653,-1.0624,-1.061,-1.0598,-1.0597,-1.0632,-1.0621,-1.0739,-1.0739,-1.0739,0,0,-0.9168,-0.9297,-0.9337,-0.9509,-0.9607,-0.9685,-0.9794,-0.9872,-0.9931,-1.0087,-1.0174,-1.0266,-1.0405,-1.0474,-1.051,-1.0547,-1.0574,-1.0593,-1.0582,-1.0589,-1.0627,-1.0616,-1.0606,-1.0736,-1.0737,-1.0737,0,0,-0.9091,-0.9197,-0.9246,-0.9342,-0.9491,-0.9598,-0.9609,-0.9782,-0.985,-0.994,-1.0059,-1.0131,-1.0288,-1.0383,-1.0451,-1.041,-1.0495,-1.0437,-1.0364,-1.0395,-1.0386,-1.0379,-1.0363,-1.0356,-1.0436,-1.0436,-1.0435,0,-0.8992,-0.9116,-0.9259,-0.9331,-0.9402,-0.9549,-0.9599,-0.9686,-0.9857,-0.9902,-0.9942,-1.0143,-1.0247,-1.034,-1.033,-1.0381,-1.0398,-1.0417,-1.0376,-1.037,-1.0365,-1.0352,-1.0346,-1.0428,-1.0428,-1.0429,-1.043,0,-0.8987,-0.907,-0.9091,-0.9254,-0.9329,-0.9388,-0.954,-0.9598,-0.9684,-0.9785,-0.9875,-1.0005,-1.013,-1.0159,-1.0243,-1.0264,-1.0282,-1.0346,-1.0414,-1.0343,-1.0334,-1.033,-1.0416,-1.0419,-1.0421,-1.0423,0,0,-0.8803,-0.9046,-0.9051,-0.9127,-0.9302,-0.9369,-0.9435,-0.9559,-0.9605,-0.9718,-0.9777,-0.9908,-0.9969,-1.0046,-1.0143,-1.017,-1.0129,-1.0233,-1.0238,-1.0207,-1.0158,-1.0107,-1.0099,-1.0187,-1.0187,-1.0187,-1.0146,0,-0.8752,-0.888,-0.9011,-0.9092,-0.917,-0.9311,-0.9369,-0.9482,-0.9579,-0.9659,-0.9767,-0.9856,-0.9931,-0.9978,-1.0013,-1.0126,-1.0121,-1.0131,-1.0242,-1.0244,-1.0201,-1.0095,-1.0041,-0.9997,-1.0144,-1.0143,-1.0143,0,-0.8709,-0.8816,-0.8904,-0.9073,-0.9111,-0.916,-0.9284,-0.9359,-0.949,-0.9559,-0.9645,-0.9748,-0.9824,-0.9883,-0.9989,-0.9994,-1.0047,-1.0109,-1.0111,-1.0125,-1.0187,-1.0104,-0.9986,-0.9978,-1.0138,-1.0139,-1.0139,0,-0.8564,-0.8732,-0.8807,-0.8867,-0.9065,-0.9097,-0.918,-0.9313,-0.9379,-0.9487,-0.9532,-0.9646,-0.9708,-0.9794,-0.9925,-0.9956,-1.0016,-1.0087,-1.0074,-1.007,-1.0079,-1.0076,-0.9965,-1.0115,-1.0115,-1.0115,-1.0115,0,-0.8492,-0.854,-0.8745,-0.879,-0.8848,-0.8999,-0.9052,-0.9148,-0.9265,-0.9331,-0.9461,-0.952,-0.969,-0.9768,-0.9871,-0.9943,-0.997,-1.0027,-1.0053,-1.0014,-1.0006,-1.005,-1.0055,-1.0113,-1.0114,-1.0114,-1.0114,0,-0.834,-0.8479,-0.857,-0.875,-0.8797,-0.8831,-0.8986,-0.9035,-0.914,-0.9222,-0.925,-0.9414,-0.9514,-0.9654,-0.9795,-0.9865,-0.9921,-0.9964,-0.9877,-0.9892,-0.9871,-0.987,-0.9783,-0.9779,-0.993,-0.9929,-0.9927,0,-0.8284,-0.8325,-0.851,-0.8564,-0.8644,-0.8729,-0.8798,-0.8947,-0.9013,-0.9165,-0.9195,-0.9306,-0.9402,-0.9554,-0.9685,-0.9794,-0.984,-0.9802,-0.9857,-0.9817,-0.9838,-0.9833,-0.9837,-0.9788,-0.9785,-0.9783,-0.9782,0,-0.8169,-0.8236,-0.833,-0.8448,-0.8526,-0.8626,-0.8732,-0.8768,-0.8941,-0.9008,-0.9112,-0.9186,-0.9332,-0.9439,-0.9566,-0.9652,-0.9744,-0.9764,-0.9767,-0.9726,-0.9673,-0.97,-0.9839,-0.9765,-0.9766,-0.9768,-0.9769,-0.9769,-0.8064,-0.8106,-0.8242,-0.8343,-0.8438,-0.8534,-0.8589,-0.8702,-0.8792,-0.8923,-0.9006,-0.9106,-0.9236,-0.9417,-0.9498,-0.9578,-0.9615,-0.9619,-0.962,-0.9618,-0.9604,-0.9662,-0.9601,-0.9602,-0.9603,-0.9603,-0.9604,0,-0.7954,-0.8049,-0.814,-0.8284,-0.8363,-0.8446,-0.8567,-0.8627,-0.8714,-0.8828,-0.892,-0.9039,-0.9144,-0.9284,-0.9399,-0.9435,-0.9481,-0.946,-0.9458,-0.9476,-0.9564,-0.955,-0.9422,-0.9422,-0.9422,-0.9422,-0.9422,-0.9422,-0.7906,-0.7982,-0.8065,-0.819,-0.8285,-0.8385,-0.8447,-0.8536,-0.8628,-0.8755,-0.8843,-0.8935,-0.9059,-0.9184,-0.9284,-0.9322,-0.9357,-0.9323,-0.9374,-0.9453,-0.947,-0.9485,-0.9473,-0.933,-0.933,-0.9279,-0.9279,-0.9278]}]]